Location: Sun City Center
(27.6996°N, 82.3528°W)
Time: 18:01:05
(UTC-05:00)

N. Korean satellite - Visible Passes

Search period start: 16 November 2018 00:00
Search period end: 26 November 2018 00:00
Orbit: 457 x 511 km, 97.2° (Epoch: 16 November)

Date Brightness Start Highest point End Pass type
(mag) Time Alt. Az. Time Alt. Az. Time Alt. Az.
16 Nov 7.7 06:26:08 10° NNE 06:29:26 47° E 06:32:45 10° S visible
16 Nov 7.7 18:27:56 10° S 18:31:29 48° W 18:35:00 10° NNW visible
17 Nov 9.6 06:02:20 10° NE 06:04:54 20° E 06:07:28 10° SE visible
17 Nov 6.5 18:03:24 10° SSE 18:07:01 67° ENE 18:10:36 10° N visible
18 Nov 10.3 19:15:07 10° WSW 19:16:01 11° W 19:16:56 10° W visible
19 Nov 9.2 18:48:28 10° SSW 18:51:27 24° W 18:54:24 10° NW visible
20 Nov 8.1 06:21:35 10° NNE 06:24:50 40° E 06:28:06 10° S visible
20 Nov 7.3 18:23:22 10° S 18:26:56 56° W 18:30:27 10° NNW visible
21 Nov 9.7 05:57:57 10° NE 06:00:17 17° E 06:02:38 10° SE visible
21 Nov 6.6 17:58:55 10° SSE 18:02:28 56° ENE 18:05:57 10° N visible
22 Nov 10.1 19:09:54 10° WSW 19:11:25 12° W 19:12:56 10° WNW visible
23 Nov 8.9 18:43:45 10° SSW 18:46:50 27° W 18:49:54 10° NW visible
24 Nov 8.4 06:17:02 10° NNE 06:20:13 34° E 06:23:24 10° SSE visible
24 Nov 7.0 18:18:45 10° S 18:22:19 67° W 18:25:50 10° NNW visible
25 Nov 9.8 05:53:34 10° ENE 05:55:38 15° E 05:57:43 10° SE visible
25 Nov 6.8 17:54:24 10° SSE 17:57:50 47° ENE 18:01:14 10° N visible
